ANZ232 YSSY-NZQN

Flight info

Callsign ANZ232
Flight time 2h 31m
Altitude 35000
Route OPTIC Y84 TONIM P766 ADKOS
Aircraft A320/M-SDE3FGHIRWY/LB1

Departure

Time 2026-04-26 23:46
Airport Sydney Kingsford Smith International Airport (YSSY)

Arrival

Time 2026-04-27 02:17
Airport Queenstown Airport (NZQN)
Time Latitude Longitude Altitude Speed Heading
2026-04-26 23:12 -33.93562 151.17756 3 ft 0 kts 281°
2026-04-26 23:32 -33.93565 151.17775 30 ft 4 kts 275°
2026-04-26 23:32 -33.93564 151.17806 30 ft 4 kts 254°
2026-04-26 23:32 -33.93553 151.17830 30 ft 4 kts 200°
2026-04-26 23:32 -33.93547 151.17832 30 ft 0 kts 190°
2026-04-26 23:35 -33.93549 151.17832 30 ft 1 kts 190°
2026-04-26 23:35 -33.93559 151.17830 30 ft 2 kts 190°
2026-04-26 23:36 -33.93581 151.17825 30 ft 4 kts 190°
2026-04-26 23:36 -33.93614 151.17818 30 ft 6 kts 190°
2026-04-26 23:36 -33.93657 151.17808 30 ft 7 kts 191°
2026-04-26 23:36 -33.93712 151.17793 30 ft 9 kts 194°
2026-04-26 23:37 -33.93779 151.17772 30 ft 11 kts 194°
2026-04-26 23:37 -33.93859 151.17768 30 ft 13 kts 169°
2026-04-26 23:37 -33.93951 151.17789 29 ft 15 kts 169°
2026-04-26 23:37 -33.94058 151.17817 28 ft 17 kts 167°
2026-04-26 23:38 -33.94173 151.17849 30 ft 18 kts 167°
2026-04-26 23:38 -33.94295 151.17883 30 ft 19 kts 167°
2026-04-26 23:38 -33.94410 151.17910 30 ft 13 kts 169°
2026-04-26 23:38 -33.94490 151.17872 30 ft 14 kts 236°
2026-04-26 23:39 -33.94554 151.17800 30 ft 15 kts 180°
2026-04-26 23:39 -33.94660 151.17829 30 ft 17 kts 167°
2026-04-26 23:39 -33.94778 151.17861 30 ft 18 kts 169°
2026-04-26 23:39 -33.94908 151.17891 30 ft 20 kts 166°
2026-04-26 23:40 -33.95043 151.17929 30 ft 14 kts 167°
2026-04-26 23:40 -33.95124 151.17951 30 ft 6 kts 168°
2026-04-26 23:40 -33.95172 151.17956 30 ft 8 kts 190°
2026-04-26 23:40 -33.95208 151.17906 30 ft 9 kts 253°
2026-04-26 23:41 -33.95228 151.17820 29 ft 12 kts 258°
2026-04-26 23:41 -33.95246 151.17712 29 ft 14 kts 258°
2026-04-26 23:41 -33.95293 151.17602 29 ft 16 kts 215°
2026-04-26 23:41 -33.95404 151.17598 29 ft 17 kts 168°
2026-04-26 23:42 -33.95526 151.17629 30 ft 19 kts 168°
2026-04-26 23:42 -33.95796 151.17699 30 ft 22 kts 168°
2026-04-26 23:42 -33.95950 151.17737 30 ft 23 kts 168°
2026-04-26 23:43 -33.96113 151.17781 30 ft 25 kts 167°
2026-04-26 23:43 -33.96287 151.17826 30 ft 26 kts 168°
2026-04-26 23:43 -33.96430 151.17901 30 ft 16 kts 109°
2026-04-26 23:43 -33.96409 151.18028 30 ft 15 kts 52°
2026-04-26 23:44 -33.96324 151.18039 29 ft 8 kts 344°
2026-04-26 23:44 -33.96314 151.18035 29 ft 1 kts 345°
2026-04-26 23:44 -33.96312 151.18035 29 ft 1 kts 345°
2026-04-26 23:44 -33.96300 151.18031 29 ft 3 kts 345°
2026-04-26 23:45 -33.96286 151.18027 29 ft 10 kts 346°
2026-04-26 23:45 -33.95971 151.17944 28 ft 80 kts 348°
2026-04-26 23:45 -33.95241 151.17756 29 ft 132 kts 348°
2026-04-26 23:45 -33.94200 151.17479 31 ft 173 kts 346°
2026-04-26 23:46 -33.92963 151.17114 389 ft 185 kts 345°
2026-04-26 23:46 -33.91703 151.16765 1071 ft 185 kts 346°
2026-04-26 23:46 -33.90443 151.16483 1778 ft 186 kts 356°
2026-04-26 23:46 -33.89132 151.16875 2001 ft 209 kts 33°
2026-04-26 23:47 -33.88149 151.18279 2226 ft 235 kts 67°
2026-04-26 23:47 -33.87934 151.20306 2699 ft 256 kts 98°
2026-04-26 23:47 -33.88633 151.22295 3473 ft 264 kts 124°
2026-04-26 23:47 -33.89801 151.24021 4326 ft 267 kts 129°
2026-04-26 23:48 -33.91033 151.25709 5175 ft 269 kts 130°
2026-04-26 23:48 -33.92257 151.27414 6030 ft 270 kts 130°
2026-04-26 23:48 -33.93472 151.29140 6869 ft 270 kts 130°
2026-04-26 23:48 -33.94683 151.30886 7621 ft 273 kts 130°
2026-04-26 23:49 -33.95900 151.32658 8352 ft 276 kts 130°
2026-04-26 23:49 -33.97132 151.34460 9066 ft 280 kts 130°
2026-04-26 23:49 -33.98408 151.36253 9777 ft 284 kts 133°
2026-04-26 23:49 -33.99768 151.38019 10271 ft 296 kts 134°
2026-04-26 23:50 -34.01220 151.39885 10533 ft 314 kts 134°
2026-04-26 23:50 -34.02768 151.41869 10650 ft 335 kts 134°
2026-04-26 23:50 -34.04408 151.43964 10953 ft 349 kts 134°
2026-04-26 23:50 -34.06088 151.46109 11505 ft 354 kts 134°
2026-04-26 23:51 -34.07785 151.48277 12123 ft 357 kts 134°
2026-04-26 23:51 -34.09503 151.50465 12698 ft 361 kts 134°
2026-04-26 23:51 -34.11246 151.52657 13294 ft 364 kts 134°
2026-04-26 23:51 -34.13019 151.54866 13853 ft 368 kts 135°
2026-04-26 23:52 -34.14788 151.57063 14410 ft 371 kts 135°
2026-04-26 23:52 -34.16591 151.59304 14935 ft 373 kts 134°
2026-04-26 23:52 -34.18404 151.61565 15453 ft 376 kts 134°
2026-04-26 23:52 -34.20231 151.63850 15962 ft 379 kts 134°
2026-04-26 23:53 -34.22069 151.66151 16474 ft 382 kts 134°
2026-04-26 23:53 -34.23921 151.68478 16983 ft 385 kts 133°
2026-04-26 23:53 -34.25784 151.70820 17511 ft 388 kts 133°
2026-04-26 23:53 -34.27665 151.73183 18031 ft 392 kts 133°
2026-04-26 23:54 -34.29561 151.75570 18556 ft 396 kts 133°
2026-04-26 23:54 -34.31477 151.77985 19012 ft 399 kts 133°
2026-04-26 23:54 -34.33408 151.80421 19506 ft 402 kts 133°
2026-04-26 23:54 -34.35349 151.82867 20006 ft 404 kts 133°
2026-04-26 23:55 -34.37303 151.85333 20514 ft 407 kts 133°
2026-04-26 23:55 -34.39267 151.87815 20977 ft 410 kts 133°
2026-04-26 23:55 -34.41214 151.90353 21417 ft 412 kts 131°
2026-04-26 23:55 -34.43097 151.92987 21846 ft 415 kts 129°
2026-04-26 23:56 -34.44933 151.95687 22275 ft 416 kts 128°
2026-04-26 23:56 -34.46755 151.98428 22705 ft 418 kts 128°
2026-04-26 23:56 -34.48587 152.01184 23108 ft 421 kts 128°
2026-04-26 23:56 -34.50438 152.03949 23494 ft 423 kts 129°
2026-04-26 23:57 -34.52310 152.06711 23882 ft 426 kts 129°
2026-04-26 23:57 -34.54205 152.09485 24180 ft 428 kts 129°
2026-04-26 23:57 -34.56115 152.12273 24510 ft 430 kts 129°
2026-04-26 23:57 -34.58004 152.15034 24818 ft 432 kts 129°
2026-04-26 23:58 -34.59926 152.17841 25145 ft 433 kts 129°
2026-04-26 23:58 -34.61856 152.20666 25409 ft 436 kts 129°
2026-04-26 23:58 -34.63787 152.23501 25684 ft 438 kts 129°
2026-04-26 23:58 -34.65733 152.26363 25971 ft 441 kts 129°
2026-04-26 23:59 -34.67690 152.29244 26276 ft 442 kts 129°
2026-04-26 23:59 -34.69654 152.32134 26576 ft 444 kts 129°
2026-04-26 23:59 -34.71626 152.35037 26924 ft 445 kts 129°
2026-04-26 23:59 -34.73595 152.37934 27347 ft 444 kts 129°
2026-04-27 00:00 -34.75555 152.40827 27765 ft 443 kts 129°
2026-04-27 00:00 -34.77510 152.43715 28177 ft 442 kts 130°
2026-04-27 00:00 -34.79461 152.46599 28619 ft 441 kts 130°
2026-04-27 00:00 -34.81409 152.49485 29059 ft 440 kts 130°
2026-04-27 00:01 -34.83345 152.52357 29507 ft 439 kts 130°
2026-04-27 00:01 -34.85278 152.55230 29926 ft 438 kts 130°
2026-04-27 00:01 -34.86554 152.57127 30208 ft 438 kts 130°
2026-04-27 00:01 -34.88491 152.60007 30585 ft 437 kts 130°
2026-04-27 00:02 -34.90416 152.62868 30959 ft 436 kts 130°
2026-04-27 00:02 -34.92337 152.65722 31348 ft 435 kts 130°
2026-04-27 00:02 -34.94249 152.68569 31740 ft 433 kts 130°
2026-04-27 00:02 -34.96157 152.71411 32109 ft 432 kts 130°
2026-04-27 00:03 -34.98059 152.74246 32470 ft 432 kts 130°
2026-04-27 00:03 -34.99961 152.77084 32836 ft 431 kts 130°
2026-04-27 00:03 -35.01837 152.79882 33205 ft 430 kts 130°
2026-04-27 00:03 -35.03731 152.82706 33581 ft 429 kts 130°
2026-04-27 00:04 -35.05617 152.85523 33919 ft 429 kts 130°
2026-04-27 00:04 -35.07503 152.88347 34280 ft 428 kts 130°
2026-04-27 00:04 -35.09387 152.91167 34571 ft 427 kts 130°
2026-04-27 00:04 -35.11263 152.93981 34831 ft 427 kts 130°
2026-04-27 00:05 -35.13136 152.96794 35073 ft 427 kts 130°
2026-04-27 00:05 -35.15013 152.99613 35262 ft 428 kts 130°
2026-04-27 00:05 -35.18814 153.05317 35322 ft 438 kts 130°
2026-04-27 00:06 -35.22703 153.11174 35323 ft 447 kts 130°
2026-04-27 00:06 -35.26627 153.17104 35323 ft 449 kts 129°
2026-04-27 00:07 -35.30563 153.23036 35323 ft 449 kts 130°
2026-04-27 00:07 -35.34500 153.28985 35323 ft 449 kts 129°
2026-04-27 00:08 -35.38422 153.34947 35325 ft 449 kts 129°
2026-04-27 00:08 -35.42354 153.40911 35330 ft 450 kts 129°
2026-04-27 00:09 -35.46253 153.46845 35333 ft 450 kts 129°
2026-04-27 00:09 -35.50181 153.52839 35336 ft 450 kts 129°
2026-04-27 00:10 -35.54104 153.58835 35337 ft 450 kts 129°
2026-04-27 00:10 -35.58026 153.64834 35338 ft 451 kts 129°
2026-04-27 00:11 -35.61956 153.70835 35341 ft 451 kts 129°
2026-04-27 00:11 -35.65879 153.76852 35349 ft 451 kts 129°
2026-04-27 00:12 -35.69807 153.82876 35339 ft 451 kts 129°
2026-04-27 00:12 -35.73726 153.88916 35340 ft 452 kts 129°
2026-04-27 00:13 -35.77646 153.94984 35343 ft 452 kts 129°
2026-04-27 00:13 -35.81564 154.01045 35346 ft 452 kts 129°
2026-04-27 00:14 -35.85485 154.07115 35350 ft 453 kts 129°
2026-04-27 00:14 -35.89407 154.13192 35351 ft 453 kts 129°
2026-04-27 00:15 -35.93324 154.19271 35351 ft 453 kts 129°
2026-04-27 00:15 -35.97245 154.25366 35354 ft 453 kts 129°
2026-04-27 00:16 -36.01126 154.31432 35357 ft 453 kts 129°
2026-04-27 00:16 -36.05337 154.37197 35355 ft 452 kts 136°
2026-04-27 00:17 -36.09893 154.42573 35356 ft 452 kts 136°
2026-04-27 00:17 -36.14436 154.47963 35355 ft 452 kts 136°
2026-04-27 00:18 -36.18976 154.53366 35354 ft 453 kts 136°
2026-04-27 00:18 -36.23522 154.58768 35355 ft 453 kts 136°
2026-04-27 00:19 -36.28057 154.64173 35353 ft 453 kts 136°
2026-04-27 00:19 -36.32587 154.69597 35358 ft 453 kts 136°
2026-04-27 00:20 -36.37121 154.75034 35359 ft 453 kts 136°
2026-04-27 00:20 -36.41662 154.80467 35358 ft 453 kts 136°
2026-04-27 00:21 -36.46172 154.85876 35358 ft 453 kts 136°
2026-04-27 00:21 -36.50699 154.91333 35359 ft 453 kts 136°
2026-04-27 00:22 -36.55224 154.96799 35362 ft 454 kts 136°
2026-04-27 00:22 -36.59758 155.02270 35361 ft 454 kts 136°
2026-04-27 00:23 -36.64285 155.07741 35362 ft 454 kts 136°
2026-04-27 00:23 -36.68819 155.13218 35359 ft 454 kts 136°
2026-04-27 00:24 -36.73349 155.18709 35359 ft 454 kts 136°
2026-04-27 00:24 -36.77872 155.24211 35358 ft 455 kts 136°
2026-04-27 00:25 -36.82398 155.29726 35359 ft 455 kts 136°
2026-04-27 00:25 -36.86922 155.35243 35360 ft 455 kts 136°
2026-04-27 00:26 -36.91444 155.40773 35360 ft 455 kts 136°
2026-04-27 00:26 -36.95964 155.46315 35362 ft 455 kts 136°
2026-04-27 00:27 -37.00461 155.51823 35359 ft 455 kts 136°
2026-04-27 00:27 -37.04985 155.57371 35358 ft 455 kts 136°
2026-04-27 00:28 -37.09512 155.62934 35359 ft 456 kts 136°
2026-04-27 00:28 -37.14029 155.68512 35362 ft 456 kts 136°
2026-04-27 00:29 -37.18547 155.74096 35362 ft 456 kts 136°
2026-04-27 00:29 -37.23064 155.79679 35363 ft 456 kts 136°
2026-04-27 00:30 -37.27580 155.85278 35362 ft 456 kts 136°
2026-04-27 00:30 -37.32063 155.90850 35360 ft 456 kts 136°
2026-04-27 00:31 -37.36583 155.96472 35358 ft 457 kts 136°
2026-04-27 00:31 -37.41103 156.02100 35358 ft 457 kts 136°
2026-04-27 00:32 -37.45615 156.07729 35358 ft 457 kts 136°
2026-04-27 00:32 -37.50129 156.13360 35358 ft 457 kts 136°
2026-04-27 00:33 -37.54635 156.19005 35364 ft 457 kts 135°
2026-04-27 00:33 -37.59148 156.24675 35361 ft 457 kts 135°
2026-04-27 00:34 -37.63625 156.30313 35359 ft 458 kts 135°
2026-04-27 00:34 -37.68140 156.36003 35357 ft 458 kts 135°
2026-04-27 00:35 -37.72650 156.41691 35357 ft 458 kts 135°
2026-04-27 00:35 -37.77164 156.47399 35359 ft 458 kts 135°
2026-04-27 00:36 -37.81643 156.53073 35360 ft 458 kts 135°
2026-04-27 00:36 -37.86151 156.58776 35365 ft 459 kts 135°
2026-04-27 00:37 -37.90659 156.64494 35365 ft 459 kts 135°
2026-04-27 00:37 -37.95162 156.70226 35362 ft 459 kts 135°
2026-04-27 00:38 -37.99652 156.75980 35361 ft 459 kts 135°
2026-04-27 00:38 -38.04148 156.81739 35361 ft 459 kts 135°
2026-04-27 00:39 -38.08647 156.87492 35362 ft 459 kts 135°
2026-04-27 00:39 -38.13149 156.93256 35362 ft 459 kts 135°
2026-04-27 00:40 -38.17646 156.99037 35361 ft 460 kts 135°
2026-04-27 00:40 -38.22138 157.04822 35359 ft 460 kts 135°
2026-04-27 00:41 -38.26632 157.10616 35354 ft 460 kts 135°
2026-04-27 00:41 -38.31089 157.16395 35358 ft 460 kts 135°
2026-04-27 00:42 -38.35582 157.22205 35358 ft 460 kts 135°
2026-04-27 00:42 -38.40071 157.28020 35358 ft 460 kts 135°
2026-04-27 00:43 -38.44558 157.33854 35361 ft 460 kts 135°
2026-04-27 00:43 -38.49036 157.39692 35360 ft 460 kts 135°
2026-04-27 00:44 -38.53515 157.45526 35355 ft 460 kts 135°
2026-04-27 00:44 -38.57988 157.51366 35355 ft 460 kts 135°
2026-04-27 00:45 -38.62459 157.57227 35357 ft 460 kts 135°
2026-04-27 00:45 -38.66173 157.62103 35357 ft 460 kts 135°
2026-04-27 00:46 -38.70641 157.67978 35359 ft 460 kts 135°
2026-04-27 00:46 -38.75106 157.73862 35364 ft 461 kts 135°
2026-04-27 00:47 -38.79573 157.79754 35357 ft 461 kts 135°
2026-04-27 00:47 -38.84044 157.85658 35353 ft 461 kts 135°
2026-04-27 00:48 -38.88512 157.91576 35352 ft 462 kts 135°
2026-04-27 00:48 -38.92967 157.97509 35354 ft 462 kts 134°
2026-04-27 00:49 -38.97427 158.03450 35357 ft 462 kts 135°
2026-04-27 00:49 -39.01897 158.09391 35358 ft 462 kts 135°
2026-04-27 00:50 -39.08561 158.18290 35356 ft 462 kts 134°
2026-04-27 00:51 -39.13017 158.24268 35359 ft 463 kts 134°
2026-04-27 00:51 -39.17474 158.30251 35358 ft 463 kts 134°
2026-04-27 00:52 -39.21931 158.36243 35356 ft 463 kts 134°
2026-04-27 00:52 -39.26393 158.42242 35356 ft 463 kts 134°
2026-04-27 00:53 -39.30859 158.48253 35363 ft 463 kts 134°
2026-04-27 00:53 -39.35310 158.54276 35358 ft 464 kts 134°
2026-04-27 00:54 -39.39760 158.60320 35354 ft 464 kts 134°
2026-04-27 00:54 -39.44214 158.66367 35353 ft 464 kts 134°
2026-04-27 00:55 -39.48665 158.72419 35352 ft 464 kts 134°
2026-04-27 00:55 -39.53124 158.78486 35357 ft 464 kts 134°
2026-04-27 00:56 -39.57543 158.84518 35354 ft 464 kts 134°
2026-04-27 00:56 -39.61993 158.90613 35363 ft 465 kts 134°
2026-04-27 00:57 -39.66445 158.96720 35355 ft 465 kts 134°
2026-04-27 00:57 -39.70891 159.02828 35353 ft 466 kts 134°
2026-04-27 00:58 -39.75347 159.08963 35352 ft 466 kts 134°
2026-04-27 00:58 -39.79798 159.15101 35350 ft 466 kts 134°
2026-04-27 00:59 -39.84243 159.21246 35351 ft 466 kts 134°
2026-04-27 00:59 -39.88660 159.27359 35358 ft 466 kts 134°
2026-04-27 01:00 -39.93112 159.33527 35349 ft 467 kts 134°
2026-04-27 01:00 -39.97566 159.39711 35345 ft 468 kts 134°
2026-04-27 01:01 -40.02012 159.45905 35345 ft 468 kts 134°
2026-04-27 01:01 -40.06462 159.52118 35346 ft 468 kts 134°
2026-04-27 01:02 -40.10906 159.58344 35341 ft 468 kts 134°
2026-04-27 01:02 -40.15345 159.64577 35343 ft 468 kts 134°
2026-04-27 01:03 -40.19791 159.70821 35349 ft 469 kts 134°
2026-04-27 01:03 -40.24237 159.77083 35339 ft 470 kts 134°
2026-04-27 01:04 -40.28679 159.83358 35344 ft 470 kts 134°
2026-04-27 01:04 -40.33126 159.89647 35341 ft 470 kts 134°
2026-04-27 01:05 -40.37572 159.95943 35340 ft 471 kts 134°
2026-04-27 01:05 -40.42024 160.02252 35342 ft 471 kts 134°
2026-04-27 01:06 -40.46442 160.08531 35345 ft 471 kts 134°
2026-04-27 01:06 -40.50883 160.14867 35334 ft 472 kts 134°
2026-04-27 01:07 -40.55325 160.21230 35342 ft 472 kts 134°
2026-04-27 01:07 -40.59774 160.27601 35338 ft 472 kts 134°
2026-04-27 01:08 -40.64223 160.33978 35334 ft 473 kts 134°
2026-04-27 01:08 -40.68641 160.40324 35331 ft 473 kts 134°
2026-04-27 01:09 -40.73086 160.46718 35341 ft 473 kts 134°
2026-04-27 01:09 -40.77525 160.53126 35335 ft 473 kts 134°
2026-04-27 01:10 -40.81966 160.59566 35326 ft 474 kts 134°
2026-04-27 01:10 -40.86399 160.66007 35329 ft 474 kts 134°
2026-04-27 01:11 -40.90841 160.72449 35330 ft 474 kts 134°
2026-04-27 01:11 -40.95287 160.78917 35327 ft 474 kts 134°
2026-04-27 01:12 -40.99720 160.85404 35325 ft 475 kts 134°
2026-04-27 01:12 -41.04152 160.91893 35334 ft 475 kts 134°
2026-04-27 01:13 -41.08597 160.98382 35327 ft 475 kts 134°
2026-04-27 01:13 -41.12999 161.04842 35316 ft 475 kts 134°
2026-04-27 01:14 -41.17432 161.11366 35318 ft 475 kts 134°
2026-04-27 01:14 -41.21862 161.17895 35315 ft 475 kts 134°
2026-04-27 01:15 -41.26281 161.24438 35315 ft 475 kts 134°
2026-04-27 01:15 -41.30698 161.30986 35314 ft 476 kts 134°
2026-04-27 01:16 -41.35111 161.37546 35314 ft 476 kts 134°
2026-04-27 01:16 -41.39518 161.44117 35316 ft 476 kts 134°
2026-04-27 01:17 -41.43928 161.50687 35312 ft 476 kts 134°
2026-04-27 01:17 -41.48335 161.57271 35318 ft 476 kts 134°
2026-04-27 01:18 -41.52737 161.63863 35319 ft 476 kts 134°
2026-04-27 01:18 -41.57137 161.70478 35319 ft 476 kts 134°
2026-04-27 01:19 -41.61510 161.77050 35317 ft 476 kts 134°
2026-04-27 01:19 -41.65899 161.83678 35310 ft 476 kts 134°
2026-04-27 01:20 -41.70286 161.90311 35309 ft 476 kts 134°
2026-04-27 01:20 -41.74671 161.96960 35309 ft 476 kts 134°
2026-04-27 01:21 -41.79053 162.03607 35300 ft 476 kts 133°
2026-04-27 01:21 -41.83434 162.10270 35307 ft 476 kts 134°
2026-04-27 01:22 -41.87806 162.16943 35306 ft 476 kts 133°
2026-04-27 01:22 -41.92177 162.23622 35305 ft 476 kts 134°
2026-04-27 01:23 -41.96552 162.30317 35303 ft 476 kts 134°
2026-04-27 01:23 -42.00916 162.37021 35298 ft 476 kts 133°
2026-04-27 01:24 -42.05240 162.43688 35302 ft 476 kts 133°
2026-04-27 01:24 -42.09598 162.50400 35309 ft 476 kts 134°
2026-04-27 01:25 -42.13954 162.57119 35299 ft 476 kts 133°
2026-04-27 01:25 -42.18299 162.63862 35297 ft 476 kts 133°
2026-04-27 01:26 -42.22635 162.70606 35295 ft 475 kts 133°
2026-04-27 01:26 -42.26971 162.77347 35289 ft 475 kts 133°
2026-04-27 01:27 -42.31274 162.84058 35285 ft 475 kts 133°
2026-04-27 01:27 -42.35602 162.90821 35292 ft 475 kts 133°
2026-04-27 01:28 -42.39921 162.97591 35292 ft 475 kts 133°
2026-04-27 01:28 -42.44197 163.04425 35286 ft 476 kts 132°
2026-04-27 01:29 -42.48377 163.11385 35286 ft 476 kts 131°
2026-04-27 01:29 -42.52532 163.18365 35284 ft 476 kts 131°
2026-04-27 01:30 -42.56006 163.24154 35281 ft 476 kts 131°
2026-04-27 01:30 -42.60875 163.32244 35295 ft 476 kts 131°
2026-04-27 01:31 -42.65044 163.39233 35287 ft 476 kts 131°
2026-04-27 01:31 -42.68533 163.45084 35283 ft 476 kts 131°
2026-04-27 01:32 -42.72669 163.52025 35275 ft 475 kts 131°
2026-04-27 01:32 -42.76827 163.59017 35273 ft 475 kts 131°
2026-04-27 01:33 -42.80984 163.66026 35273 ft 475 kts 131°
2026-04-27 01:33 -42.85131 163.73045 35275 ft 475 kts 131°
2026-04-27 01:34 -42.89288 163.80076 35283 ft 475 kts 131°
2026-04-27 01:34 -42.93421 163.87103 35275 ft 475 kts 131°
2026-04-27 01:35 -42.97526 163.94101 35270 ft 475 kts 131°
2026-04-27 01:35 -43.01663 164.01149 35277 ft 475 kts 131°
2026-04-27 01:36 -43.05792 164.08195 35272 ft 475 kts 131°
2026-04-27 01:36 -43.09884 164.15222 35267 ft 474 kts 131°
2026-04-27 01:37 -43.13997 164.22299 35277 ft 474 kts 131°
2026-04-27 01:37 -43.18102 164.29373 35270 ft 474 kts 131°
2026-04-27 01:38 -43.22205 164.36454 35265 ft 474 kts 131°
2026-04-27 01:38 -43.26298 164.43556 35268 ft 474 kts 131°
2026-04-27 01:39 -43.30363 164.50616 35259 ft 474 kts 131°
2026-04-27 01:39 -43.34448 164.57718 35255 ft 474 kts 131°
2026-04-27 01:40 -43.38529 164.64837 35269 ft 474 kts 131°
2026-04-27 01:40 -43.42609 164.71981 35268 ft 474 kts 131°
2026-04-27 01:41 -43.46682 164.79117 35256 ft 474 kts 131°
2026-04-27 01:41 -43.50763 164.86264 35254 ft 474 kts 131°
2026-04-27 01:42 -43.54805 164.93382 35251 ft 474 kts 130°
2026-04-27 01:42 -43.58859 165.00558 35250 ft 474 kts 130°
2026-04-27 01:43 -43.62914 165.07736 35258 ft 474 kts 130°
2026-04-27 01:43 -43.66973 165.14928 35255 ft 475 kts 130°
2026-04-27 01:44 -43.71028 165.22142 35251 ft 475 kts 130°
2026-04-27 01:44 -43.75047 165.29316 35246 ft 475 kts 130°
2026-04-27 01:45 -43.79081 165.36551 35245 ft 475 kts 130°
2026-04-27 01:45 -43.83118 165.43787 35244 ft 475 kts 130°
2026-04-27 01:46 -43.87157 165.51032 35244 ft 475 kts 130°
2026-04-27 01:46 -43.91186 165.58282 35244 ft 475 kts 130°
2026-04-27 01:47 -43.95214 165.65553 35241 ft 475 kts 130°
2026-04-27 01:47 -43.99233 165.72830 35239 ft 475 kts 130°
2026-04-27 01:48 -44.03253 165.80118 35249 ft 475 kts 130°
2026-04-27 01:48 -44.07276 165.87421 35244 ft 475 kts 130°
2026-04-27 01:49 -44.11284 165.94731 35242 ft 475 kts 130°
2026-04-27 01:49 -44.15286 166.02059 35247 ft 475 kts 130°
2026-04-27 01:50 -44.19264 166.09333 35239 ft 475 kts 130°
2026-04-27 01:50 -44.23269 166.16667 35248 ft 475 kts 130°
2026-04-27 01:51 -44.27276 166.24014 35240 ft 475 kts 130°
2026-04-27 01:51 -44.31267 166.31376 35239 ft 475 kts 130°
2026-04-27 01:52 -44.35258 166.38751 35238 ft 475 kts 130°
2026-04-27 01:52 -44.39250 166.46132 35251 ft 475 kts 130°
2026-04-27 01:53 -44.43211 166.53460 35242 ft 475 kts 130°
2026-04-27 01:53 -44.47187 166.60858 35238 ft 476 kts 130°
2026-04-27 01:54 -44.51163 166.68280 35240 ft 476 kts 130°
2026-04-27 01:54 -44.55135 166.75707 35246 ft 476 kts 130°
2026-04-27 01:55 -44.58953 166.83299 35244 ft 479 kts 121°
2026-04-27 01:55 -44.60308 166.87571 35245 ft 482 kts 110°
2026-04-27 01:55 -44.61123 166.92133 35244 ft 483 kts 99°
2026-04-27 01:56 -44.61025 167.06265 34833 ft 483 kts 87°
2026-04-27 01:56 -44.60844 167.10981 34158 ft 484 kts 87°
2026-04-27 01:56 -44.60665 167.15710 33343 ft 486 kts 87°
2026-04-27 01:57 -44.60487 167.20465 32525 ft 489 kts 87°
2026-04-27 01:57 -44.60308 167.25237 31705 ft 491 kts 87°
2026-04-27 01:57 -44.60125 167.30032 30880 ft 493 kts 87°
2026-04-27 01:57 -44.59996 167.34855 30001 ft 496 kts 91°
2026-04-27 01:58 -44.60210 167.39679 29158 ft 495 kts 95°
2026-04-27 01:58 -44.60482 167.44470 28480 ft 491 kts 95°
2026-04-27 01:58 -44.60752 167.49220 27825 ft 487 kts 96°
2026-04-27 01:58 -44.61015 167.53876 27182 ft 483 kts 96°
2026-04-27 01:59 -44.61277 167.58559 26554 ft 480 kts 96°
2026-04-27 01:59 -44.61534 167.63211 25948 ft 476 kts 96°
2026-04-27 01:59 -44.61788 167.67830 25363 ft 473 kts 96°
2026-04-27 01:59 -44.62036 167.72420 24793 ft 470 kts 96°
2026-04-27 02:00 -44.62281 167.76981 24222 ft 467 kts 96°
2026-04-27 02:00 -44.62525 167.81514 23676 ft 465 kts 96°
2026-04-27 02:00 -44.62763 167.86019 23074 ft 462 kts 96°
2026-04-27 02:00 -44.62994 167.90507 22489 ft 459 kts 96°
2026-04-27 02:01 -44.63217 167.94958 21951 ft 455 kts 96°
2026-04-27 02:01 -44.63438 167.99374 21446 ft 452 kts 96°
2026-04-27 02:01 -44.63662 168.03761 20979 ft 449 kts 96°
2026-04-27 02:01 -44.63887 168.08120 20538 ft 446 kts 96°
2026-04-27 02:02 -44.64113 168.12463 20137 ft 443 kts 96°
2026-04-27 02:02 -44.64333 168.16769 19691 ft 441 kts 96°
2026-04-27 02:02 -44.64548 168.21056 19207 ft 438 kts 96°
2026-04-27 02:02 -44.64756 168.25260 18852 ft 433 kts 96°
2026-04-27 02:03 -44.64957 168.29431 18729 ft 420 kts 96°
2026-04-27 02:03 -44.65148 168.33460 18597 ft 407 kts 97°
2026-04-27 02:03 -44.65472 168.37336 18478 ft 392 kts 107°
2026-04-27 02:03 -44.66339 168.40865 18342 ft 373 kts 122°
2026-04-27 02:04 -44.67668 168.43886 18205 ft 356 kts 135°
2026-04-27 02:04 -44.69338 168.46352 17846 ft 340 kts 148°
2026-04-27 02:04 -44.71178 168.48381 17449 ft 335 kts 150°
2026-04-27 02:04 -44.73011 168.50378 17015 ft 331 kts 150°
2026-04-27 02:05 -44.74822 168.52355 16437 ft 327 kts 149°
2026-04-27 02:05 -44.76612 168.54313 15864 ft 324 kts 149°
2026-04-27 02:05 -44.78386 168.56248 15333 ft 320 kts 152°
2026-04-27 02:05 -44.80255 168.57820 14864 ft 309 kts 158°
2026-04-27 02:06 -44.82103 168.59251 14357 ft 306 kts 158°
2026-04-27 02:06 -44.83960 168.60688 13843 ft 303 kts 158°
2026-04-27 02:06 -44.85800 168.62110 13290 ft 301 kts 158°
2026-04-27 02:06 -44.87601 168.63598 12702 ft 302 kts 150°
2026-04-27 02:07 -44.89093 168.65732 12164 ft 310 kts 131°
2026-04-27 02:07 -44.90044 168.68476 11601 ft 316 kts 110°
2026-04-27 02:07 -44.90336 168.71555 11196 ft 315 kts 95°
2026-04-27 02:07 -44.90413 168.74570 11064 ft 299 kts 96°
2026-04-27 02:08 -44.90504 168.77419 10919 ft 283 kts 97°
2026-04-27 02:08 -44.90599 168.80147 10533 ft 276 kts 97°
2026-04-27 02:08 -44.90699 168.82844 10098 ft 275 kts 97°
2026-04-27 02:08 -44.90796 168.85520 9794 ft 272 kts 97°
2026-04-27 02:09 -44.90887 168.88176 9394 ft 270 kts 96°
2026-04-27 02:09 -44.90974 168.90808 9081 ft 266 kts 96°
2026-04-27 02:09 -44.91058 168.93407 8578 ft 264 kts 96°
2026-04-27 02:09 -44.91138 168.95948 8130 ft 260 kts 95°
2026-04-27 02:10 -44.91269 168.98469 7645 ft 256 kts 104°
2026-04-27 02:10 -44.91787 169.00836 7238 ft 252 kts 119°
2026-04-27 02:10 -44.92679 169.02925 6969 ft 245 kts 133°
2026-04-27 02:10 -44.93866 169.04624 6564 ft 242 kts 147°
2026-04-27 02:11 -44.95279 169.05862 6270 ft 237 kts 160°
2026-04-27 02:11 -44.96815 169.06619 5999 ft 232 kts 172°
2026-04-27 02:11 -44.98397 169.06881 5676 ft 227 kts 185°
2026-04-27 02:11 -44.99942 169.06533 5324 ft 223 kts 202°
2026-04-27 02:12 -45.01295 169.05604 5131 ft 208 kts 218°
2026-04-27 02:12 -45.02352 169.04291 4903 ft 199 kts 233°
2026-04-27 02:12 -45.03102 169.02680 4663 ft 195 kts 246°
2026-04-27 02:12 -45.03534 169.00882 4410 ft 192 kts 260°
2026-04-27 02:13 -45.03645 168.99037 4260 ft 183 kts 272°
2026-04-27 02:13 -45.03496 168.97284 4117 ft 176 kts 283°
2026-04-27 02:13 -45.03128 168.95679 3976 ft 168 kts 293°
2026-04-27 02:13 -45.02587 168.94273 3830 ft 157 kts 301°
2026-04-27 02:14 -45.02032 168.93019 3629 ft 147 kts 302°
2026-04-27 02:14 -45.01500 168.91812 3379 ft 141 kts 302°
2026-04-27 02:14 -45.00980 168.90627 2981 ft 143 kts 302°
2026-04-27 02:14 -45.00462 168.89448 2640 ft 142 kts 301°
2026-04-27 02:15 -45.00066 168.88188 2608 ft 142 kts 287°
2026-04-27 02:15 -44.99888 168.86813 2599 ft 142 kts 274°
2026-04-27 02:15 -44.99944 168.85424 2596 ft 141 kts 261°
2026-04-27 02:15 -45.00219 168.84082 2543 ft 143 kts 251°
2026-04-27 02:16 -45.00560 168.82771 2437 ft 142 kts 252°
2026-04-27 02:16 -45.00823 168.81431 2336 ft 142 kts 258°
2026-04-27 02:16 -45.01013 168.80054 2193 ft 142 kts 261°
2026-04-27 02:16 -45.01178 168.78678 1993 ft 141 kts 259°
2026-04-27 02:17 -45.01382 168.77336 1723 ft 139 kts 258°
2026-04-27 02:17 -45.01604 168.76014 1377 ft 137 kts 257°
2026-04-27 02:17 -45.01824 168.74732 1172 ft 128 kts 259°
2026-04-27 02:17 -45.01945 168.73922 1176 ft 33 kts 258°
2026-04-27 02:18 -45.01975 168.73724 1171 ft 16 kts 262°
2026-04-27 02:18 -45.01987 168.73632 1166 ft 4 kts 200°
2026-04-27 02:18 -45.01989 168.73646 1167 ft 1 kts 85°
2026-04-27 02:18 -45.01989 168.73647 1167 ft 0 kts 85°
2026-04-27 02:19 -45.01984 168.73679 1167 ft 7 kts 76°
2026-04-27 02:19 -45.01970 168.73759 1172 ft 8 kts 76°
2026-04-27 02:19 -45.01957 168.73831 1176 ft 7 kts 77°
2026-04-27 02:19 -45.01947 168.73893 1177 ft 7 kts 77°
2026-04-27 02:20 -45.01937 168.73962 1177 ft 8 kts 77°
2026-04-27 02:20 -45.01937 168.74018 1175 ft 9 kts 116°
2026-04-27 02:20 -45.02020 168.74007 1173 ft 6 kts 201°
2026-04-27 02:20 -45.02052 168.73995 1171 ft 8 kts 195°
2026-04-27 02:21 -45.02096 168.73969 1173 ft 7 kts 205°
2026-04-27 02:21 -45.02105 168.73963 1169 ft 0 kts 205°